| time (UTC) | temp F | wind direction | speed MPH | gust MPH | rain 1hr in | rain 24hr in | rain mn in | humidity % | barometer mb |
| 20260507025126 | 46 | 346 | 3.0 | 5.0 | 0.00 | 0.00 | 0.00 | 88 | 1014.2 |
| 20260507024624 | 46 | 345 | 3.0 | 4.0 | 0.00 | 0.00 | 0.00 | 88 | 1014.1 |
| 20260507023624 | 46 | 347 | 2.0 | 5.0 | 0.00 | 0.00 | 0.00 | 87 | 1014.2 |
| 20260507022624 | 46 | 335 | 3.0 | 5.0 | 0.00 | 0.00 | 0.00 | 87 | 1014.1 |
| 20260507022129 | 46 | 343 | 3.0 | 6.0 | 0.00 | 0.00 | 0.00 | 87 | 1014.1 |
| 20260507021129 | 46 | 347 | 3.0 | 6.0 | 0.00 | 0.00 | 0.00 | 87 | 1014.0 |
| 20260507020624 | 46 | 331 | 3.0 | 6.0 | 0.00 | 0.00 | 0.00 | 87 | 1014.0 |
| 20260507020129 | 46 | 347 | 3.0 | 6.0 | 0.00 | 0.00 | 0.00 | 87 | 1013.9 |
| 20260507015624 | 46 | 347 | 3.0 | 7.0 | 0.00 | 0.00 | 0.00 | 87 | 1013.9 |
| 20260507015129 | 46 | 358 | 3.0 | 7.0 | 0.00 | 0.00 | 0.00 | 87 | 1013.8 |
| 20260507014624 | 46 | 344 | 3.0 | 7.0 | 0.00 | 0.00 | 0.00 | 87 | 1013.8 |
| 20260507014127 | 46 | 346 | 3.0 | 6.0 | 0.00 | 0.00 | 0.00 | 88 | 1013.8 |
| 20260507013624 | 46 | 332 | 2.0 | 4.0 | 0.00 | 0.00 | 0.00 | 87 | 1013.8 |
| 20260507013126 | 46 | 351 | 3.0 | 5.0 | 0.00 | 0.00 | 0.00 | 87 | 1013.7 |
| 20260507011624 | 46 | 356 | 3.0 | 6.0 | 0.00 | 0.00 | 0.00 | 87 | 1013.7 |
| 20260507010624 | 46 | 353 | 3.0 | 6.0 | 0.00 | 0.00 | 0.00 | 88 | 1013.7 |
| 20260507010128 | 46 | 352 | 3.0 | 6.0 | 0.00 | 0.00 | 0.00 | 88 | 1013.7 |
| 20260507005624 | 47 | 340 | 4.0 | 8.0 | 0.00 | 0.00 | 0.00 | 88 | 1013.7 |
| 20260507005127 | 47 | 336 | 3.0 | 7.0 | 0.00 | 0.00 | 0.00 | 88 | 1013.7 |
| 20260507004624 | 47 | 351 | 3.0 | 5.0 | 0.00 | 0.00 | 0.00 | 88 | 1013.7 |
| 20260507004126 | 47 | 345 | 3.0 | 6.0 | 0.00 | 0.00 | 0.00 | 88 | 1013.7 |
| 20260507003624 | 47 | 354 | 4.0 | 7.0 | 0.00 | 0.00 | 0.00 | 88 | 1013.7 |
| 20260507002624 | 47 | 338 | 3.0 | 9.0 | 0.00 | 0.00 | 0.00 | 88 | 1013.7 |
| 20260507002127 | 47 | 360 | 3.0 | 9.0 | 0.00 | 0.00 | 0.00 | 88 | 1013.6 |
| 20260507001625 | 47 | 354 | 3.0 | 6.0 | 0.00 | 0.00 | 0.00 | 88 | 1013.6 |
| 20260507001126 | 47 | 356 | 4.0 | 8.0 | 0.00 | 0.00 | 0.00 | 88 | 1013.6 |
| 20260507000624 | 47 | 332 | 3.0 | 6.0 | 0.00 | 0.00 | 0.00 | 89 | 1013.5 |
| 20260507000128 | 47 | 325 | 3.0 | 7.0 | 0.00 | 0.00 | 0.00 | 89 | 1013.5 |
| 20260506235624 | 47 | 328 | 3.0 | 6.0 | 0.00 | 0.00 | 0.00 | 89 | 1013.5 |
| 20260506235127 | 47 | 327 | 4.0 | 7.0 | 0.00 | 0.00 | 0.00 | 89 | 1013.5 |
| 20260506234624 | 48 | 328 | 4.0 | 8.0 | 0.00 | 0.00 | 0.00 | 89 | 1013.5 |
| 20260506234128 | 48 | 345 | 3.0 | 6.0 | 0.00 | 0.00 | 0.00 | 88 | 1013.5 |
| 20260506233624 | 48 | 338 | 4.0 | 9.0 | 0.00 | 0.00 | 0.00 | 88 | 1013.5 |
| 20260506233127 | 48 | 345 | 4.0 | 8.0 | 0.00 | 0.00 | 0.00 | 88 | 1013.5 |
| 20260506232624 | 48 | 334 | 4.0 | 8.0 | 0.00 | 0.00 | 0.00 | 88 | 1013.5 |
| 20260506232128 | 48 | 349 | 4.0 | 7.0 | 0.00 | 0.00 | 0.00 | 88 | 1013.5 |
| 20260506231624 | 48 | 346 | 3.0 | 6.0 | 0.00 | 0.00 | 0.00 | 88 | 1013.5 |
| 20260506230624 | 48 | 335 | 3.0 | 9.0 | 0.00 | 0.00 | 0.00 | 87 | 1013.4 |
| 20260506230125 | 49 | 348 | 4.0 | 6.0 | 0.00 | 0.00 | 0.00 | 87 | 1013.4 |
| 20260506225127 | 49 | 347 | 4.0 | 10.0 | 0.00 | 0.00 | 0.00 | 86 | 1013.4 |
| 20260506224624 | 49 | 334 | 4.0 | 8.0 | 0.00 | 0.00 | 0.00 | 86 | 1013.4 |
| 20260506224126 | 49 | 338 | 4.0 | 9.0 | 0.00 | 0.00 | 0.00 | 85 | 1013.4 |
| 20260506223129 | 49 | 358 | 5.0 | 10.0 | 0.00 | 0.00 | 0.00 | 85 | 1013.3 |
| 20260506222624 | 49 | 346 | 5.0 | 8.0 | 0.00 | 0.00 | 0.00 | 85 | 1013.3 |
| 20260506222126 | 49 | 348 | 4.0 | 7.0 | 0.00 | 0.00 | 0.00 | 84 | 1013.3 |
| 20260506221624 | 50 | 343 | 6.0 | 11.0 | 0.00 | 0.00 | 0.00 | 84 | 1013.2 |
| 20260506221126 | 50 | 354 | 5.0 | 9.0 | 0.00 | 0.00 | 0.00 | 84 | 1013.2 |
| 20260506220625 | 50 | 354 | 5.0 | 11.0 | 0.00 | 0.00 | 0.00 | 83 | 1013.2 |
| 20260506220127 | 50 | 338 | 6.0 | 11.0 | 0.00 | 0.00 | 0.00 | 83 | 1013.2 |
| 20260506215624 | 50 | 336 | 5.0 | 13.0 | 0.00 | 0.00 | 0.00 | 83 | 1013.2 |
| 20260506215129 | 50 | 355 | 5.0 | 9.0 | 0.00 | 0.00 | 0.00 | 82 | 1013.1 |
| 20260506214624 | 50 | 354 | 6.0 | 10.0 | 0.00 | 0.00 | 0.00 | 82 | 1013.0 |
| 20260506213624 | 51 | 1 | 3.0 | 6.0 | 0.00 | 0.00 | 0.00 | 81 | 1013.0 |
| 20260506213127 | 51 | 356 | 6.0 | 10.0 | 0.00 | 0.00 | 0.00 | 80 | 1012.9 |
| 20260506211624 | 51 | 342 | 6.0 | 13.0 | 0.00 | 0.00 | 0.00 | 77 | 1012.8 |
| 20260506210128 | 52 | 353 | 6.0 | 11.0 | 0.00 | 0.00 | 0.00 | 76 | 1012.7 |
| 20260506205624 | 52 | 2 | 7.0 | 13.0 | 0.00 | 0.00 | 0.00 | 75 | 1012.6 |
| 20260506205128 | 52 | 7 | 6.0 | 15.0 | 0.00 | 0.00 | 0.00 | 75 | 1012.6 |
| 20260506204624 | 52 | 343 | 6.0 | 11.0 | 0.00 | 0.00 | 0.00 | 75 | 1012.5 |
| 20260506204128 | 53 | 356 | 6.0 | 14.0 | 0.00 | 0.00 | 0.00 | 74 | 1012.5 |
| 20260506203624 | 53 | 342 | 6.0 | 12.0 | 0.00 | 0.00 | 0.00 | 73 | 1012.5 |
| 20260506203129 | 53 | 355 | 7.0 | 18.0 | 0.00 | 0.00 | 0.00 | 73 | 1012.5 |
| 20260506202624 | 53 | 2 | 7.0 | 15.0 | 0.00 | 0.00 | 0.00 | 73 | 1012.4 |
| 20260506202126 | 53 | 0 | 6.0 | 13.0 | 0.00 | 0.00 | 0.00 | 72 | 1012.4 |
| 20260506201624 | 53 | 353 | 7.0 | 15.0 | 0.00 | 0.00 | 0.00 | 71 | 1012.4 |
| 20260506200624 | 53 | 354 | 8.0 | 17.0 | 0.00 | 0.00 | 0.00 | 69 | 1012.3 |
| 20260506195624 | 54 | 0 | 6.0 | 15.0 | 0.00 | 0.00 | 0.00 | 69 | 1012.2 |
| 20260506195126 | 54 | 360 | 7.0 | 15.0 | 0.00 | 0.00 | 0.00 | 69 | 1012.2 |
| 20260506194127 | 54 | 355 | 8.0 | 15.0 | 0.00 | 0.00 | 0.00 | 68 | 1012.1 |
| 20260506193623 | 54 | 359 | 6.0 | 13.0 | 0.00 | 0.00 | 0.00 | 68 | 1012.0 |
| 20260506193126 | 54 | 354 | 6.0 | 17.0 | 0.00 | 0.00 | 0.00 | 68 | 1011.9 |
| 20260506192623 | 54 | 357 | 8.0 | 17.0 | 0.00 | 0.00 | 0.00 | 67 | 1011.8 |
| 20260506191623 | 54 | 354 | 6.0 | 11.0 | 0.00 | 0.00 | 0.00 | 68 | 1011.7 |
| 20260506191126 | 54 | 7 | 7.0 | 14.0 | 0.00 | 0.00 | 0.00 | 68 | 1011.6 |
| 20260506190623 | 54 | 352 | 8.0 | 16.0 | 0.00 | 0.00 | 0.00 | 69 | 1011.5 |
| 20260506190124 | 54 | 351 | 7.0 | 14.0 | 0.00 | 0.00 | 0.00 | 69 | 1011.5 |
| 20260506185623 | 54 | 3 | 8.0 | 15.0 | 0.00 | 0.00 | 0.00 | 69 | 1011.4 |
| 20260506185126 | 54 | 356 | 8.0 | 18.0 | 0.00 | 0.00 | 0.00 | 69 | 1011.4 |
| 20260506184623 | 54 | 355 | 8.0 | 15.0 | 0.00 | 0.00 | 0.00 | 69 | 1011.3 |
| 20260506184125 | 55 | 350 | 6.0 | 14.0 | 0.00 | 0.00 | 0.00 | 69 | 1011.3 |
| 20260506183623 | 55 | 349 | 8.0 | 15.0 | 0.00 | 0.00 | 0.00 | 68 | 1011.2 |
| 20260506183126 | 55 | 2 | 8.0 | 15.0 | 0.00 | 0.00 | 0.00 | 68 | 1011.1 |
| 20260506182623 | 55 | 349 | 6.0 | 19.0 | 0.00 | 0.00 | 0.00 | 68 | 1011.1 |
| 20260506182125 | 55 | 20 | 7.0 | 15.0 | 0.00 | 0.00 | 0.00 | 68 | 1011.1 |
| 20260506181623 | 55 | 12 | 6.0 | 14.0 | 0.00 | 0.00 | 0.00 | 68 | 1011.0 |
| 20260506180623 | 55 | 354 | 8.0 | 17.0 | 0.00 | 0.00 | 0.00 | 66 | 1010.9 |
| 20260506180125 | 55 | 3 | 7.0 | 17.0 | 0.00 | 0.00 | 0.00 | 65 | 1010.9 |
| 20260506175623 | 55 | 3 | 6.0 | 11.0 | 0.00 | 0.00 | 0.00 | 65 | 1010.8 |
| 20260506175126 | 55 | 2 | 5.0 | 12.0 | 0.00 | 0.00 | 0.00 | 65 | 1010.8 |
| 20260506174623 | 55 | 1 | 3.0 | 11.0 | 0.00 | 0.00 | 0.00 | 65 | 1010.7 |
| 20260506174126 | 55 | 6 | 5.0 | 10.0 | 0.00 | 0.00 | 0.00 | 65 | 1010.6 |
| 20260506173623 | 55 | 353 | 5.0 | 9.0 | 0.00 | 0.00 | 0.00 | 64 | 1010.5 |
| 20260506173125 | 55 | 1 | 5.0 | 10.0 | 0.00 | 0.00 | 0.00 | 64 | 1010.5 |
| 20260506171623 | 55 | 30 | 5.0 | 12.0 | 0.00 | 0.00 | 0.00 | 64 | 1010.4 |
| 20260506171125 | 56 | 40 | 4.0 | 9.0 | 0.00 | 0.00 | 0.00 | 63 | 1010.4 |
| 20260506170623 | 56 | 21 | 5.0 | 10.0 | 0.00 | 0.00 | 0.00 | 63 | 1010.3 |
| 20260506165624 | 56 | 28 | 5.0 | 11.0 | 0.00 | 0.00 | 0.00 | 61 | 1010.3 |
| 20260506165125 | 56 | 32 | 4.0 | 11.0 | 0.00 | 0.00 | 0.00 | 61 | 1010.2 |
| 20260506164624 | 56 | 30 | 5.0 | 15.0 | 0.00 | 0.00 | 0.00 | 61 | 1010.3 |
| 20260506163623 | 57 | 64 | 4.0 | 8.0 | 0.00 | 0.00 | 0.00 | 60 | 1010.2 |
| 20260506163125 | 57 | 26 | 4.0 | 6.0 | 0.00 | 0.00 | 0.00 | 60 | 1010.1 |
| 20260506162623 | 57 | 19 | 4.0 | 10.0 | 0.00 | 0.00 | 0.00 | 58 | 1010.1 |
| 20260506162126 | 57 | 56 | 6.0 | 13.0 | 0.00 | 0.00 | 0.00 | 57 | 1010.1 |
| 20260506161623 | 57 | 31 | 4.0 | 8.0 | 0.00 | 0.00 | 0.00 | 57 | 1010.1 |
| 20260506161125 | 58 | 81 | 4.0 | 8.0 | 0.00 | 0.00 | 0.00 | 56 | 1010.1 |
| 20260506160125 | 57 | 39 | 6.0 | 13.0 | 0.00 | 0.00 | 0.00 | 55 | 1010.1 |
| 20260506155623 | 57 | 39 | 6.0 | 14.0 | 0.00 | 0.00 | 0.00 | 55 | 1010.1 |
| 20260506155127 | 57 | 41 | 7.0 | 13.0 | 0.00 | 0.00 | 0.00 | 55 | 1010.1 |
| 20260506154623 | 57 | 12 | 4.0 | 12.0 | 0.00 | 0.00 | 0.00 | 56 | 1010.1 |
| 20260506154127 | 57 | 20 | 4.0 | 10.0 | 0.00 | 0.00 | 0.00 | 56 | 1010.2 |
| 20260506153126 | 57 | 20 | 5.0 | 13.0 | 0.00 | 0.00 | 0.00 | 54 | 1010.2 |
| 20260506152127 | 58 | 17 | 4.0 | 11.0 | 0.00 | 0.00 | 0.00 | 54 | 1010.1 |
| 20260506151623 | 58 | 38 | 4.0 | 8.0 | 0.00 | 0.00 | 0.00 | 53 | 1010.0 |
| 20260506151126 | 57 | 38 | 5.0 | 11.0 | 0.00 | 0.00 | 0.00 | 53 | 1010.0 |
| 20260506150623 | 57 | 35 | 7.0 | 14.0 | 0.00 | 0.00 | 0.00 | 52 | 1010.0 |
| 20260506150124 | 57 | 35 | 7.0 | 15.0 | 0.00 | 0.00 | 0.00 | 51 | 1010.0 |
| 20260506145623 | 58 | 46 | 7.0 | 14.0 | 0.00 | 0.00 | 0.00 | 50 | 1010.0 |
| 20260506145124 | 58 | 42 | 5.0 | 12.0 | 0.00 | 0.00 | 0.00 | 50 | 1009.9 |
| 20260506144623 | 58 | 16 | 5.0 | 12.0 | 0.00 | 0.00 | 0.00 | 51 | 1009.9 |
| 20260506144126 | 58 | 0 | 5.0 | 11.0 | 0.00 | 0.00 | 0.00 | 50 | 1009.9 |
| 20260506143623 | 58 | 29 | 6.0 | 14.0 | 0.00 | 0.00 | 0.00 | 51 | 1009.9 |
| 20260506143128 | 58 | 22 | 5.0 | 11.0 | 0.00 | 0.00 | 0.00 | 51 | 1009.9 |
| 20260506142623 | 58 | 40 | 5.0 | 12.0 | 0.00 | 0.00 | 0.00 | 49 | 1009.9 |
| 20260506142126 | 58 | 26 | 6.0 | 18.0 | 0.00 | 0.00 | 0.00 | 49 | 1009.9 |
| 20260506141623 | 58 | 27 | 7.0 | 13.0 | 0.00 | 0.00 | 0.00 | 49 | 1009.9 |
| 20260506141126 | 58 | 12 | 7.0 | 19.0 | 0.00 | 0.00 | 0.00 | 49 | 1009.9 |
| 20260506140623 | 59 | 359 | 7.0 | 17.0 | 0.00 | 0.00 | 0.00 | 47 | 1009.9 |
| 20260506140126 | 59 | 36 | 7.0 | 16.0 | 0.00 | 0.00 | 0.00 | 50 | 1009.9 |
| 20260506134127 | 59 | 53 | 6.0 | 12.0 | 0.00 | 0.00 | 0.00 | 50 | 1009.8 |
| 20260506133623 | 59 | 16 | 7.0 | 15.0 | 0.00 | 0.00 | 0.00 | 51 | 1009.8 |
| 20260506133127 | 58 | 11 | 8.0 | 16.0 | 0.00 | 0.00 | 0.00 | 50 | 1009.8 |
| 20260506132624 | 58 | 7 | 6.0 | 12.0 | 0.00 | 0.00 | 0.00 | 50 | 1009.8 |
| 20260506131623 | 58 | 29 | 7.0 | 16.0 | 0.00 | 0.00 | 0.00 | 50 | 1009.8 |
| 20260506131126 | 58 | 44 | 6.0 | 16.0 | 0.00 | 0.00 | 0.00 | 49 | 1009.8 |
| 20260506130124 | 58 | 42 | 7.0 | 15.0 | 0.00 | 0.00 | 0.00 | 51 | 1009.7 |
| 20260506125623 | 58 | 56 | 8.0 | 17.0 | 0.00 | 0.00 | 0.00 | 49 | 1009.7 |
| 20260506125124 | 58 | 43 | 5.0 | 13.0 | 0.00 | 0.00 | 0.00 | 53 | 1009.7 |
| 20260506124623 | 58 | 60 | 8.0 | 16.0 | 0.00 | 0.00 | 0.00 | 52 | 1009.7 |
| 20260506124126 | 58 | 14 | 4.0 | 12.0 | 0.00 | 0.00 | 0.00 | 53 | 1009.7 |
| 20260506123623 | 58 | 1 | 9.0 | 19.0 | 0.00 | 0.00 | 0.00 | 53 | 1009.6 |
| 20260506123125 | 58 | 18 | 6.0 | 11.0 | 0.00 | 0.00 | 0.00 | 52 | 1009.6 |
| 20260506122623 | 58 | 23 | 6.0 | 15.0 | 0.00 | 0.00 | 0.00 | 52 | 1009.6 |
| 20260506122126 | 57 | 26 | 6.0 | 14.0 | 0.00 | 0.00 | 0.00 | 52 | 1009.6 |
| 20260506121623 | 57 | 41 | 6.0 | 12.0 | 0.00 | 0.00 | 0.00 | 51 | 1009.6 |
| 20260506120623 | 57 | 3 | 7.0 | 14.0 | 0.00 | 0.00 | 0.00 | 54 | 1009.6 |
| 20260506120127 | 58 | 25 | 8.0 | 18.0 | 0.00 | 0.00 | 0.00 | 53 | 1009.5 |
| 20260506115126 | 57 | 18 | 6.0 | 14.0 | 0.00 | 0.00 | 0.00 | 56 | 1009.5 |
| 20260506114623 | 57 | 6 | 9.0 | 18.0 | 0.00 | 0.00 | 0.00 | 57 | 1009.6 |
| 20260506114125 | 57 | 1 | 8.0 | 17.0 | 0.00 | 0.00 | 0.00 | 57 | 1009.6 |
| 20260506113623 | 57 | 353 | 8.0 | 15.0 | 0.00 | 0.00 | 0.00 | 56 | 1009.6 |
| 20260506113126 | 57 | 355 | 9.0 | 17.0 | 0.00 | 0.00 | 0.00 | 57 | 1009.6 |
| 20260506112623 | 57 | 348 | 9.0 | 17.0 | 0.00 | 0.00 | 0.00 | 56 | 1009.5 |
| 20260506112126 | 57 | 4 | 9.0 | 19.0 | 0.00 | 0.00 | 0.00 | 56 | 1009.6 |
| 20260506111623 | 58 | 24 | 7.0 | 13.0 | 0.00 | 0.00 | 0.00 | 56 | 1009.5 |
| 20260506110126 | 57 | 356 | 7.0 | 18.0 | 0.00 | 0.00 | 0.00 | 59 | 1009.5 |
| 20260506105625 | 57 | 355 | 11.0 | 21.0 | 0.00 | 0.00 | 0.00 | 60 | 1009.5 |
| 20260506104623 | 56 | 359 | 9.0 | 18.0 | 0.00 | 0.00 | 0.00 | 68 | 1009.5 |
| 20260506104124 | 56 | 1 | 7.0 | 15.0 | 0.00 | 0.00 | 0.00 | 68 | 1009.5 |
| 20260506103623 | 56 | 2 | 10.0 | 19.0 | 0.00 | 0.00 | 0.00 | 69 | 1009.5 |
| 20260506102623 | 56 | 355 | 10.0 | 20.0 | 0.00 | 0.00 | 0.00 | 71 | 1009.5 |
| 20260506102126 | 57 | 357 | 7.0 | 14.0 | 0.00 | 0.00 | 0.00 | 71 | 1009.4 |
| 20260506101623 | 56 | 2 | 9.0 | 17.0 | 0.00 | 0.00 | 0.00 | 71 | 1009.4 |
| 20260506101126 | 56 | 352 | 9.0 | 17.0 | 0.00 | 0.00 | 0.00 | 71 | 1009.5 |
| 20260506100623 | 55 | 357 | 11.0 | 18.0 | 0.00 | 0.00 | 0.00 | 71 | 1009.4 |
| 20260506100126 | 56 | 359 | 9.0 | 17.0 | 0.00 | 0.00 | 0.00 | 72 | 1009.4 |
| 20260506095623 | 55 | 356 | 9.0 | 23.0 | 0.00 | 0.00 | 0.00 | 73 | 1009.3 |
| 20260506095126 | 56 | 353 | 8.0 | 21.0 | 0.00 | 0.00 | 0.00 | 74 | 1009.4 |
| 20260506094623 | 56 | 360 | 10.0 | 17.0 | 0.00 | 0.00 | 0.00 | 73 | 1009.4 |
| 20260506094125 | 56 | 4 | 11.0 | 21.0 | 0.00 | 0.00 | 0.00 | 73 | 1009.3 |
| 20260506093623 | 56 | 3 | 9.0 | 18.0 | 0.00 | 0.00 | 0.00 | 75 | 1009.3 |
| 20260506093127 | 56 | 357 | 10.0 | 18.0 | 0.00 | 0.00 | 0.00 | 75 | 1009.3 |
| 20260506092623 | 56 | 357 | 9.0 | 21.0 | 0.00 | 0.00 | 0.00 | 75 | 1009.2 |
| 20260506092127 | 56 | 4 | 9.0 | 20.0 | 0.00 | 0.00 | 0.00 | 75 | 1009.2 |
| 20260506091623 | 57 | 8 | 9.0 | 20.0 | 0.00 | 0.00 | 0.00 | 74 | 1009.2 |
| 20260506091127 | 56 | 357 | 8.0 | 18.0 | 0.00 | 0.00 | 0.00 | 75 | 1009.2 |
| 20260506090624 | 56 | 1 | 9.0 | 21.0 | 0.00 | 0.00 | 0.00 | 75 | 1009.2 |
| 20260506085623 | 55 | 2 | 8.0 | 19.0 | 0.00 | 0.00 | 0.00 | 78 | 1009.2 |
| 20260506084623 | 54 | 357 | 9.0 | 20.0 | 0.00 | 0.00 | 0.00 | 78 | 1009.2 |
| 20260506083623 | 55 | 356 | 8.0 | 15.0 | 0.00 | 0.00 | 0.00 | 77 | 1009.1 |
| 20260506083125 | 56 | 16 | 6.0 | 15.0 | 0.00 | 0.00 | 0.00 | 77 | 1009.1 |
| 20260506082126 | 55 | 356 | 8.0 | 17.0 | 0.00 | 0.00 | 0.00 | 76 | 1009.0 |
| 20260506081623 | 55 | 8 | 8.0 | 13.0 | 0.00 | 0.00 | 0.00 | 77 | 1009.0 |
| 20260506081126 | 54 | 351 | 8.0 | 17.0 | 0.00 | 0.00 | 0.00 | 78 | 1009.0 |
| 20260506080623 | 54 | 356 | 10.0 | 17.0 | 0.00 | 0.00 | 0.00 | 78 | 1009.0 |
| 20260506080124 | 55 | 12 | 7.0 | 18.0 | 0.00 | 0.00 | 0.00 | 76 | 1008.9 |
| 20260506073126 | 53 | 2 | 6.0 | 13.0 | 0.00 | 0.00 | 0.00 | 84 | 1008.8 |
| 20260506072623 | 53 | 350 | 6.0 | 12.0 | 0.00 | 0.00 | 0.00 | 84 | 1008.8 |
| 20260506071623 | 53 | 344 | 8.0 | 15.0 | 0.00 | 0.00 | 0.00 | 83 | 1008.8 |
| 20260506071125 | 53 | 356 | 6.0 | 13.0 | 0.00 | 0.00 | 0.00 | 83 | 1008.8 |
| 20260506070623 | 53 | 348 | 5.0 | 13.0 | 0.00 | 0.00 | 0.00 | 83 | 1008.8 |
| 20260506062125 | 52 | 1 | 9.0 | 19.0 | 0.00 | 0.00 | 0.00 | 85 | 1008.6 |
| 20260506061623 | 52 | 353 | 7.0 | 14.0 | 0.00 | 0.00 | 0.00 | 85 | 1008.6 |
| 20260506061127 | 52 | 355 | 7.0 | 11.0 | 0.00 | 0.00 | 0.00 | 85 | 1008.5 |
| 20260506060623 | 51 | 351 | 6.0 | 15.0 | 0.00 | 0.00 | 0.00 | 85 | 1008.5 |
| 20260506060125 | 51 | 348 | 8.0 | 14.0 | 0.00 | 0.00 | 0.00 | 85 | 1008.5 |
| 20260506050623 | 51 | 353 | 8.0 | 15.0 | 0.00 | 0.00 | 0.00 | 85 | 1008.4 |
| 20260506045127 | 51 | 352 | 7.0 | 15.0 | 0.00 | 0.00 | 0.00 | 85 | 1008.5 |
| 20260506044126 | 51 | 352 | 8.0 | 13.0 | 0.00 | 0.00 | 0.00 | 85 | 1008.5 |
| 20260506043625 | 51 | 352 | 8.0 | 15.0 | 0.00 | 0.00 | 0.00 | 85 | 1008.6 |
| 20260506043125 | 51 | 352 | 8.0 | 14.0 | 0.00 | 0.00 | 0.00 | 85 | 1008.6 |
| 20260506042625 | 51 | 353 | 7.0 | 15.0 | 0.00 | 0.00 | 0.00 | 85 | 1008.6 |
| 20260506042126 | 51 | 351 | 7.0 | 15.0 | 0.00 | 0.00 | 0.00 | 85 | 1008.6 |
| 20260506041623 | 51 | 350 | 9.0 | 16.0 | 0.00 | 0.00 | 0.00 | 85 | 1008.6 |
| 20260506041127 | 51 | 352 | 9.0 | 14.0 | 0.00 | 0.00 | 0.00 | 84 | 1008.6 |
| 20260506040127 | 51 | 341 | 7.0 | 14.0 | 0.00 | 0.00 | 0.00 | 84 | 1008.7 |
| 20260506035623 | 51 | 348 | 9.0 | 14.0 | 0.00 | 0.00 | 0.00 | 84 | 1008.7 |
| 20260506035128 | 51 | 350 | 10.0 | 16.0 | 0.00 | 0.00 | 0.00 | 84 | 1008.6 |
| 20260506034623 | 51 | 359 | 8.0 | 16.0 | 0.00 | 0.00 | 0.00 | 84 | 1008.6 |
| 20260506034128 | 51 | 352 | 8.0 | 15.0 | 0.00 | 0.00 | 0.00 | 84 | 1008.7 |
| 20260506033623 | 51 | 2 | 8.0 | 15.0 | 0.00 | 0.00 | 0.00 | 84 | 1008.7 |
| 20260506033128 | 51 | 2 | 6.0 | 12.0 | 0.00 | 0.00 | 0.00 | 84 | 1008.7 |
| 20260506032623 | 51 | 352 | 7.0 | 17.0 | 0.00 | 0.00 | 0.00 | 84 | 1008.7 |
| 20260506032126 | 51 | 0 | 8.0 | 15.0 | 0.00 | 0.00 | 0.00 | 83 | 1008.7 |
| 20260506031623 | 51 | 357 | 10.0 | 21.0 | 0.00 | 0.00 | 0.00 | 83 | 1008.7 |
| 20260506031126 | 51 | 346 | 9.0 | 15.0 | 0.00 | 0.00 | 0.00 | 83 | 1008.8 |
| 20260506030623 | 51 | 357 | 8.0 | 15.0 | 0.00 | 0.00 | 0.00 | 83 | 1008.8 |
| 20260506025623 | 51 | 346 | 7.0 | 14.0 | 0.00 | 0.00 | 0.00 | 82 | 1008.9 |